Location: ????? ??????
(37.8317°N, 23.8750°E)
Time: 13:00:53
(UTC+00:00)

Okean O Rocket - Pass Details

Date: 20 January 2021
Orbit: 622 x 645 km, 98.2° (Epoch: 03 March)

Event Time Altitude Azimuth Distance (km) Brightness Sun altitude
Rises 16:30:01 0° 181° (S) 2,940 5.3 -11.0°
Reaches altitude 10° 16:32:18 10° 187° (S) 2,034 4.5 -11.5°
Maximum altitude 16:36:32 45° 260° (W) 882 2.9 -12.3°
Drops below altitude 10° 16:40:49 10° 334° (NNW) 2,040 4.4 -13.1°
Sets 16:43:06 0° 341° (NNW) 2,951 5.1 -13.5°
